GEFSNGP_850_meantemp_078.txt.gz
Temperature
8 9 9 9 10 9 8 9 10 11 12 14 15 14 13 13 14 14 15 15 16 15 15 15 15 15 15 14 14 13 12 11 10 9 7 5 4 3 2 1 -0 -1 -1 -2
8 9 8 7 9 10 9 9 9 10 11 13 13 12 12 13 13 13 14 15 15 15 15 15 15 15 14 14 14 13 12 11 10 8 7 5 4 3 1 1 -0 -1 -1 -2
7 8 8 9 10 10 9 8 8 9 11 11 10 10 12 13 13 13 14 14 14 14 14 14 14 14 14 13 13 12 12 11 10 8 7 5 4 2 1 1 -0 -1 -1 -2
5 8 8 11 11 10 10 9 8 9 10 10 10 12 13 14 13 13 13 13 13 13 13 13 13 13 13 13 12 12 11 11 10 8 7 5 3 2 1 1 -0 -1 -1 -2
5 6 7 9 10 9 9 9 10 9 9 10 11 10 12 14 13 12 12 12 12 12 12 12 12 12 12 12 12 11 11 11 10 8 6 5 3 3 1 0 -1 -1 -1 -2
4 5 7 10 11 11 10 9 11 10 10 10 9 7 9 12 11 11 11 11 11 11 11 11 12 11 11 11 11 11 10 10 8 7 5 4 3 2 1 0 -1 -2 -2 -2
4 4 7 8 9 10 10 11 12 12 11 10 8 9 10 10 10 10 10 10 10 10 10 10 10 10 10 10 10 10 8 8 7 6 5 4 2 1 0 -1 -1 -2 -2 -2
4 4 7 8 8 9 10 12 12 11 11 10 10 10 9 9 9 9 9 9 9 9 9 9 9 9 9 9 9 8 7 7 6 5 4 2 1 0 -1 -1 -2 -2 -3 -3
5 8 10 10 11 12 12 11 10 10 10 9 9 8 8 8 8 8 8 8 8 8 8 9 9 8 8 8 7 7 7 6 5 4 3 2 1 -0 -1 -2 -2 -2 -3 -3
5 6 8 10 11 11 11 10 10 9 9 8 7 7 7 7 7 7 7 7 7 7 7 8 8 7 7 7 6 6 6 5 4 3 2 0 -1 -1 -2 -2 -2 -2 -3 -3
6 7 8 9 10 10 9 9 8 8 7 7 6 6 6 6 6 6 6 6 6 6 6 6 6 6 6 6 5 5 4 4 3 1 0 -1 -1 -1 -2 -2 -1 -2 -2 -3
8 9 8 8 9 8 8 7 7 6 6 6 6 5 5 5 5 5 5 5 5 5 5 5 5 5 5 5 4 4 3 3 1 0 -1 -1 -2 -2 -3 -3 -3 -3 -3 -3
8 8 8 8 7 7 6 6 6 5 5 5 5 5 4 4 4 4 5 5 4 4 4 4 4 4 4 4 4 3 2 2 0 -1 -2 -2 -2 -3 -3 -3 -4 -4 -4 -4
7 7 6 6 5 5 5 5 5 5 5 5 4 4 4 4 4 4 4 4 4 3 3 3 3 4 3 3 3 2 2 1 -1 -2 -3 -3 -3 -3 -3 -3 -4 -4 -4 -4
6 5 5 5 5 5 4 4 4 4 4 4 4 4 3 3 3 3 3 3 3 3 3 3 3 3 3 2 2 2 1 -0 -1 -2 -3 -4 -4 -4 -4 -4 -4 -4 -5 -5
4 4 4 4 4 4 4 3 3 3 3 3 3 3 2 2 2 2 2 2 2 2 2 2 2 2 2 2 1 1 0 -1 -2 -3 -4 -5 -5 -5 -5 -5 -5 -5 -5 -5
4 4 4 3 3 3 3 3 2 2 2 2 2 2 2 1 2 2 2 2 1 2 2 2 1 1 1 1 1 0 -0 -1 -2 -4 -4 -5 -6 -6 -5 -5 -5 -5 -5 -5
4 3 3 3 3 2 2 2 2 2 2 1 1 1 1 1 1 1 1 1 1 2 2 1 1 1 1 1 0 -0 -1 -2 -3 -4 -5 -5 -6 -6 -6 -6 -5 -5 -5 -6
3 3 3 3 2 2 2 2 2 1 1 1 1 0 1 1 1 1 0 0 1 1 1 1 1 1 1 0 0 -0 -1 -2 -3 -4 -5 -6 -7 -7 -7 -6 -6 -6 -6 -6
3 2 2 2 2 2 1 1 1 1 1 1 0 0 0 1 1 0 0 0 1 1 0 0 0 0 0 -0 -0 -1 -2 -3 -4 -5 -5 -6 -7 -7 -7 -6 -6 -6 -6 -6
2 2 2 1 1 1 1 1 1 0 0 0 0 0 0 0 0 -0 -0 -0 1 0 0 0 -0 -0 -0 -1 -1 -2 -2 -3 -4 -5 -6 -6 -7 -7 -7 -7 -6 -6 -6 -6
1 1 1 1 0 0 0 0 0 0 0 0 0 -0 -0 -0 -0 -0 -0 -0 0 -0 -0 -0 -0 -0 -1 -1 -1 -2 -3 -4 -4 -5 -6 -6 -7 -7 -7 -7 -6 -6 -6 -6
1 1 0 0 -0 -0 0 0 0 -0 -0 -0 -0 -0 -0 -1 -1 -1 -1 -0 -0 -0 -0 -0 -0 -1 -1 -1 -2 -2 -3 -4 -5 -5 -6 -6 -7 -7 -7 -7 -7 -6 -6 -6
0 0 -0 -0 -0 -0 -0 -0 -0 -1 -1 -1 -0 -0 -1 -1 -1 -1 -1 -1 -0 -0 -0 -0 -1 -1 -1 -1 -2 -3 -3 -4 -5 -5 -6 -7 -7 -7 -7 -7 -7 -7 -6 -6
-0 -1 -1 -1 -1 -1 -1 -1 -1 -1 -1 -1 -1 -1 -1 -1 -1 -1 -1 -1 -0 -0 -1 -0 -1 -1 -1 -2 -2 -3 -4 -4 -5 -6 -6 -7 -7 -7 -7 -7 -7 -7 -6 -6
-1 -1 -1 -1 -1 -1 -1 -2 -2 -2 -2 -2 -2 -1 -1 -1 -1 -1 -1 -1 -1 -1 -1 -1 -1 -1 -2 -2 -3 -3 -4 -5 -5 -6 -6 -7 -7 -7 -7 -7 -7 -6 -6 -6
-1 -1 -1 -1 -1 -1 -2 -2 -3 -3 -3 -3 -3 -2 -2 -2 -2 -1 -1 -1 -1 -1 -1 -1 -1 -2 -2 -3 -3 -4 -4 -5 -6 -6 -6 -7 -7 -7 -7 -7 -6 -6 -6 -6

GEFSNGP_850_meantemp_084.txt.gz
Temperature
15 16 15 14 14 15 14 14 14 16 17 17 17 16 14 13 13 12 12 11 11 11 11 11 11 11 11 10 11 10 11 11 11 10 10 9 8 7 5 4 2 1 -0 -1
13 14 13 12 13 14 14 14 14 14 15 16 14 13 13 13 13 12 11 11 11 10 10 10 9 9 9 9 9 9 10 10 10 9 9 8 7 6 4 3 1 -1 -1 -2
14 12 11 13 15 14 14 14 14 15 16 14 13 13 12 12 12 11 11 10 10 9 9 8 8 8 8 8 8 9 9 9 9 9 8 7 6 5 4 2 0 -1 -2 -3
12 11 10 16 15 14 14 14 14 13 13 13 12 11 11 11 11 10 10 9 9 8 8 7 7 7 7 8 8 8 8 8 8 7 7 6 5 4 3 1 -1 -2 -3 -3
10 12 13 15 14 13 12 14 14 13 12 12 11 11 12 11 10 9 8 8 7 7 7 6 6 6 6 7 7 7 7 7 6 6 5 5 4 3 1 -0 -2 -3 -4 -4
9 9 11 16 13 11 12 13 12 11 11 11 10 10 11 9 8 8 7 7 6 6 6 6 6 6 6 6 6 5 5 5 5 5 4 4 3 2 0 -1 -2 -4 -4 -4
9 9 12 14 10 10 12 14 11 11 10 10 10 9 9 8 7 6 6 6 6 5 5 5 5 5 5 5 4 4 4 4 4 4 3 3 2 1 -1 -2 -3 -4 -5 -5
9 9 10 12 10 12 13 11 10 10 9 8 8 7 7 6 6 6 5 5 5 5 5 5 5 4 3 3 3 3 3 3 3 3 2 2 1 -0 -2 -3 -4 -5 -6 -6
11 12 13 10 11 11 10 9 9 8 7 7 6 6 6 5 5 5 5 5 4 4 4 4 3 3 2 2 2 2 2 2 2 2 2 1 0 -1 -2 -4 -5 -5 -6 -6
10 12 12 11 10 9 9 8 7 7 6 6 5 5 4 4 4 4 4 4 3 3 3 3 2 2 2 1 1 1 1 1 1 1 1 0 -1 -2 -3 -4 -5 -6 -6 -6
10 11 11 10 9 8 7 7 6 6 5 5 4 4 4 4 4 3 3 3 3 2 2 1 1 1 1 1 0 0 0 0 0 -0 -0 -1 -2 -2 -3 -4 -4 -5 -6 -6
10 11 10 9 8 7 6 5 5 4 4 4 4 3 3 3 3 3 3 2 2 1 1 1 1 1 1 1 0 -0 -0 -0 -0 -1 -1 -2 -2 -3 -3 -4 -5 -6 -6 -6
9 8 7 7 6 5 4 4 4 4 3 3 3 3 3 2 2 2 2 1 1 0 0 0 0 0 1 0 -0 -0 -0 -1 -1 -1 -2 -2 -3 -4 -4 -5 -5 -6 -6 -7
6 6 5 5 4 4 3 3 3 3 3 3 3 3 2 2 1 1 1 1 0 -0 -0 -0 -0 0 0 -0 -0 -0 -1 -1 -1 -2 -2 -3 -4 -4 -5 -5 -6 -6 -6 -6
4 4 4 3 3 3 3 3 3 3 3 2 2 2 1 1 1 1 0 -0 -1 -1 -0 -1 -1 -0 -0 -0 -1 -1 -1 -1 -2 -2 -3 -3 -4 -5 -5 -6 -6 -6 -6 -6
3 3 3 2 2 2 2 2 2 2 2 2 1 1 1 0 -0 -0 -0 -1 -1 -1 -1 -0 -0 -0 -1 -1 -1 -1 -1 -2 -2 -2 -3 -3 -4 -5 -6 -6 -6 -7 -7 -7
2 2 2 2 2 2 2 1 1 1 1 0 0 0 -0 -1 -1 -1 -1 -1 -1 -1 -0 -1 -1 -1 -1 -1 -2 -2 -2 -2 -2 -3 -3 -4 -4 -5 -6 -6 -6 -7 -7 -7
2 2 1 1 1 1 1 1 1 0 0 -0 -0 -1 -1 -1 -1 -1 -1 -1 -1 -1 -0 -1 -1 -1 -1 -1 -2 -2 -2 -2 -3 -3 -3 -4 -5 -5 -6 -6 -7 -7 -7 -7
2 2 1 1 1 0 0 0 0 -0 -0 -0 -1 -1 -1 -1 -2 -2 -2 -2 -2 -2 -1 -1 -1 -1 -1 -1 -2 -2 -2 -3 -3 -3 -4 -4 -5 -5 -6 -6 -7 -7 -7 -8
2 1 1 1 1 0 0 -0 -0 -1 -1 -1 -1 -1 -2 -1 -1 -2 -2 -2 -2 -2 -2 -2 -2 -2 -2 -2 -2 -2 -2 -3 -3 -4 -4 -5 -5 -6 -6 -7 -7 -7 -8 -8
1 1 1 0 0 -0 -0 -1 -1 -1 -1 -1 -1 -1 -2 -2 -2 -2 -3 -3 -2 -2 -2 -2 -2 -2 -2 -2 -2 -2 -3 -3 -4 -4 -4 -5 -5 -6 -6 -7 -7 -8 -8 -8
1 0 0 -0 -1 -1 -1 -1 -1 -1 -1 -1 -1 -2 -2 -2 -2 -3 -3 -3 -3 -3 -3 -3 -2 -2 -2 -2 -2 -3 -3 -4 -4 -4 -5 -5 -6 -6 -6 -7 -8 -8 -8 -8
0 -0 -1 -1 -1 -1 -1 -1 -1 -2 -2 -2 -2 -2 -3 -3 -3 -3 -3 -3 -3 -3 -3 -3 -3 -3 -2 -2 -3 -3 -3 -4 -4 -4 -5 -5 -6 -6 -7 -7 -8 -8 -8 -8
-0 -1 -1 -1 -1 -1 -2 -2 -2 -2 -2 -3 -3 -3 -3 -4 -4 -4 -4 -4 -3 -3 -3 -3 -3 -3 -3 -3 -3 -3 -4 -4 -4 -5 -5 -6 -6 -7 -7 -8 -8 -8 -8 -8
-1 -1 -1 -1 -2 -2 -2 -2 -3 -3 -3 -4 -4 -4 -4 -4 -4 -4 -4 -4 -4 -4 -3 -3 -3 -3 -3 -3 -3 -4 -4 -4 -4 -5 -5 -6 -6 -7 -7 -8 -8 -8 -8 -8
-2 -2 -2 -2 -2 -2 -3 -3 -4 -4 -4 -4 -4 -4 -4 -4 -5 -5 -5 -4 -4 -4 -4 -4 -3 -3 -3 -4 -4 -4 -4 -4 -5 -5 -6 -6 -7 -7 -7 -7 -8 -8 -8 -7
-2 -2 -2 -2 -2 -3 -3 -4 -5 -5 -5 -5 -5 -5 -5 -5 -5 -5 -5 -5 -5 -4 -4 -4 -4 -4 -4 -4 -4 -4 -4 -4 -5 -5 -6 -6 -7 -7 -7 -7 -7 -7 -7 -7

GEFSNGP_850_meantemp_090.txt.gz
Temperature
15 16 16 15 15 15 14 14 14 14 15 16 15 14 14 14 13 13 13 12 11 11 10 10 9 9 9 8 8 8 7 7 7 7 7 6 6 6 5 5 5 4 3 2
13 14 15 14 15 15 14 14 14 14 14 15 14 14 13 13 12 12 12 11 10 10 9 9 8 8 7 7 7 7 6 6 6 6 5 5 5 4 4 4 3 3 2 2
11 13 13 12 14 15 15 15 15 14 14 13 12 12 12 12 12 11 10 10 9 9 8 8 7 7 7 6 6 6 6 5 5 4 4 4 4 3 3 2 2 2 1 1
10 11 9 13 16 16 15 15 14 13 13 12 12 12 12 12 10 10 9 9 8 8 7 7 6 6 6 6 5 5 5 4 4 4 3 3 3 2 2 1 1 1 0 -0
9 9 11 14 14 14 13 13 13 12 12 12 11 10 11 11 9 8 8 8 7 7 6 6 6 5 5 5 4 4 3 3 3 3 2 2 2 1 1 1 0 0 -0 -1
9 8 8 13 13 13 12 11 11 11 10 10 9 7 8 9 8 8 7 7 6 6 6 5 5 5 4 4 3 3 2 2 2 2 1 1 1 0 0 0 -0 -1 -1 -1
8 8 9 13 12 12 11 10 11 11 10 9 8 7 8 7 7 7 6 6 5 5 5 4 4 3 3 3 2 2 1 1 1 1 1 0 -0 -0 -0 -1 -1 -1 -2 -2
8 8 9 12 12 11 10 11 10 9 9 8 8 7 7 6 6 6 5 5 5 4 4 4 3 2 2 1 1 1 1 1 0 0 -0 -0 -1 -1 -1 -1 -2 -2 -2 -3
10 10 13 13 12 11 10 9 8 8 7 7 6 6 6 5 5 5 4 4 4 3 3 3 2 1 1 1 0 0 -0 -0 -0 -0 -1 -1 -1 -1 -2 -2 -2 -3 -3 -3
10 11 12 12 11 10 9 8 7 7 6 6 5 5 4 4 4 4 4 3 3 2 2 2 1 1 0 -0 -0 -0 -1 -1 -1 -1 -1 -1 -2 -2 -2 -3 -3 -3 -3 -4
9 10 11 10 9 8 7 6 6 5 5 4 4 4 4 3 3 3 3 2 2 1 1 1 0 -0 -0 -1 -1 -1 -1 -1 -1 -2 -2 -2 -2 -3 -3 -3 -3 -4 -4 -4
8 8 7 7 7 6 5 5 4 4 4 4 3 3 3 3 2 2 2 2 1 1 0 -0 -0 -0 -1 -1 -1 -1 -2 -2 -2 -2 -2 -2 -3 -3 -3 -3 -3 -4 -4 -5
7 7 6 6 5 5 4 4 4 3 3 3 3 2 2 2 2 1 1 1 0 0 -0 -0 -1 -1 -1 -1 -2 -2 -2 -2 -2 -2 -3 -3 -3 -3 -3 -3 -4 -4 -4 -5
6 6 5 5 4 4 4 3 3 3 3 2 2 2 1 1 1 1 0 0 -0 -0 -1 -1 -1 -1 -1 -2 -2 -2 -2 -2 -3 -3 -3 -3 -3 -4 -4 -4 -4 -4 -4 -5
5 4 4 4 4 3 3 3 2 2 2 2 2 1 1 0 0 0 0 -0 -1 -1 -1 -1 -1 -1 -2 -2 -2 -3 -3 -3 -3 -3 -3 -3 -4 -4 -4 -4 -5 -5 -5 -5
4 4 4 3 3 3 3 2 2 2 2 1 1 1 0 0 -0 -0 -0 -1 -1 -1 -2 -2 -2 -2 -2 -2 -3 -3 -3 -3 -3 -3 -3 -4 -4 -4 -4 -5 -5 -5 -5 -6
3 3 3 3 3 2 2 2 2 1 1 1 0 0 0 -0 -0 -1 -1 -1 -2 -2 -2 -2 -2 -3 -3 -3 -3 -3 -3 -3 -3 -4 -4 -4 -4 -5 -5 -5 -5 -5 -6 -6
3 3 3 2 2 2 2 1 1 1 0 0 0 -0 -0 -1 -1 -1 -2 -2 -3 -3 -2 -3 -3 -3 -3 -3 -3 -3 -3 -4 -4 -4 -4 -5 -5 -5 -5 -5 -5 -6 -6 -6
3 3 2 2 2 1 1 1 1 0 0 0 -0 -1 -1 -1 -2 -2 -3 -3 -3 -3 -3 -3 -3 -3 -3 -3 -4 -4 -4 -4 -4 -4 -5 -5 -5 -5 -5 -5 -6 -6 -6 -7
2 2 2 1 1 1 1 1 0 0 -0 -0 -1 -1 -1 -2 -2 -3 -3 -4 -4 -4 -4 -4 -4 -4 -4 -4 -4 -4 -4 -4 -5 -5 -5 -5 -5 -5 -5 -6 -6 -6 -7 -7
2 1 1 1 1 1 0 0 -0 -0 -1 -1 -1 -2 -2 -2 -3 -4 -4 -4 -4 -4 -4 -4 -4 -4 -4 -4 -4 -4 -4 -5 -5 -5 -5 -5 -5 -5 -6 -6 -6 -7 -7 -7
1 1 1 1 0 0 -0 -0 -1 -1 -1 -1 -2 -2 -3 -3 -4 -4 -4 -5 -5 -5 -5 -5 -5 -5 -5 -5 -5 -5 -5 -5 -5 -5 -5 -5 -5 -6 -6 -6 -7 -7 -7 -8
1 1 0 0 -0 -1 -1 -1 -1 -1 -2 -2 -2 -3 -3 -4 -4 -5 -5 -5 -5 -5 -5 -5 -5 -5 -5 -5 -5 -5 -5 -5 -6 -5 -5 -6 -6 -6 -6 -7 -7 -7 -8 -8
0 0 -0 -1 -1 -1 -1 -1 -2 -2 -2 -3 -3 -3 -4 -5 -5 -5 -5 -5 -5 -5 -5 -5 -5 -5 -5 -5 -5 -5 -6 -6 -6 -6 -6 -6 -6 -6 -7 -7 -7 -8 -8 -8
-0 -0 -1 -1 -1 -2 -2 -2 -2 -3 -3 -3 -4 -4 -4 -5 -5 -5 -6 -6 -6 -6 -6 -5 -5 -5 -5 -5 -6 -6 -6 -6 -6 -6 -6 -6 -6 -7 -7 -7 -8 -8 -8 -8
-1 -1 -2 -2 -2 -2 -3 -3 -3 -3 -4 -4 -4 -4 -5 -5 -5 -6 -6 -6 -6 -6 -6 -6 -6 -6 -6 -6 -6 -6 -6 -6 -6 -6 -6 -6 -7 -7 -7 -7 -8 -8 -8 -8
-2 -2 -2 -2 -3 -3 -3 -4 -4 -4 -4 -5 -5 -5 -5 -6 -6 -6 -6 -6 -6 -6 -6 -6 -6 -6 -6 -6 -6 -6 -6 -6 -6 -6 -6 -7 -7 -7 -7 -8 -8 -8 -8 -8

GEFSNGP_850_meantemp_096.txt.gz
Temperature
10 11 11 11 11 11 10 9 9 10 10 11 10 9 10 10 9 9 9 8 8 8 7 7 7 6 6 6 5 5 5 5 4 4 4 4 3 3 3 3 2 2 2 2
10 11 10 10 10 10 10 10 9 10 10 10 9 10 9 9 8 8 8 7 7 7 7 6 6 5 5 5 5 4 4 4 4 3 3 3 2 2 2 2 1 1 1 1
8 9 9 9 10 10 10 10 9 9 9 8 8 8 9 8 8 7 7 7 6 6 6 5 5 5 4 4 4 3 3 3 3 2 2 2 1 1 1 1 0 0 0 0
7 9 8 10 11 11 10 9 9 8 8 8 8 8 8 8 7 6 6 6 5 5 5 5 4 4 4 3 3 3 2 2 1 1 1 1 0 0 -0 -0 -0 -0 -0 -1
6 7 7 9 10 11 10 9 8 7 7 7 7 7 7 7 6 6 5 5 5 4 4 4 3 3 3 2 2 2 1 1 0 -0 -0 -0 -1 -1 -1 -1 -1 -1 -1 -1
5 7 7 9 10 11 10 8 7 7 6 6 6 4 5 6 5 5 5 4 4 4 3 3 3 2 2 2 1 1 0 0 -0 -1 -1 -1 -1 -1 -1 -2 -2 -2 -2 -2
5 5 7 8 9 10 9 7 7 7 6 6 5 4 5 4 4 4 4 3 3 3 3 2 2 1 1 1 1 0 -0 -0 -1 -1 -1 -2 -2 -2 -2 -2 -2 -2 -2 -2
4 5 6 8 8 7 7 7 6 6 5 5 4 4 4 4 3 3 3 3 2 2 2 2 1 1 0 0 -0 -0 -1 -1 -1 -1 -2 -2 -2 -2 -2 -3 -3 -3 -3 -3
6 7 7 8 7 7 7 6 5 5 4 4 4 3 3 3 3 2 2 2 2 1 1 1 1 0 -0 -1 -1 -1 -2 -2 -2 -2 -2 -2 -2 -3 -3 -3 -3 -3 -3 -3
5 6 6 7 6 6 5 5 4 4 4 3 3 3 2 2 2 2 2 1 1 1 0 0 -0 -1 -1 -1 -2 -2 -2 -2 -2 -2 -3 -3 -3 -3 -3 -3 -4 -4 -4 -4
5 5 6 6 5 5 5 5 4 4 4 3 3 2 2 2 2 1 1 1 0 0 -0 -1 -1 -1 -2 -2 -2 -3 -3 -3 -3 -3 -3 -3 -3 -3 -4 -4 -4 -4 -4 -4
5 6 5 5 5 5 5 4 4 4 3 3 2 2 2 1 1 1 1 0 0 -0 -1 -1 -2 -2 -2 -3 -3 -3 -4 -4 -4 -4 -4 -4 -4 -4 -4 -4 -4 -4 -4 -5
6 6 6 5 5 4 4 4 3 3 3 2 2 1 1 1 1 0 0 -0 -1 -1 -1 -2 -2 -2 -3 -3 -3 -4 -4 -4 -4 -4 -4 -4 -4 -5 -5 -4 -5 -5 -5 -5
5 5 5 4 4 4 3 3 3 2 2 2 1 1 1 0 0 -0 -0 -1 -1 -2 -2 -2 -3 -3 -3 -4 -4 -4 -4 -4 -4 -4 -4 -5 -5 -5 -5 -5 -5 -5 -5 -5
4 4 4 4 4 3 3 2 2 2 2 1 1 1 0 -0 -0 -1 -1 -1 -2 -2 -2 -3 -3 -3 -4 -4 -4 -4 -5 -5 -5 -5 -5 -5 -5 -6 -6 -6 -6 -5 -5 -5
4 4 3 3 3 3 2 2 1 1 1 1 0 0 -0 -1 -1 -1 -1 -2 -2 -3 -3 -3 -4 -4 -4 -5 -5 -5 -5 -5 -5 -5 -5 -5 -6 -6 -6 -6 -6 -6 -6 -6
3 3 3 2 2 2 2 1 1 1 0 0 -0 -0 -1 -1 -1 -2 -2 -2 -3 -3 -3 -4 -4 -5 -5 -5 -5 -5 -5 -5 -5 -5 -6 -6 -6 -6 -6 -6 -6 -6 -6 -6
3 2 2 2 2 1 1 1 1 0 -0 -0 -1 -1 -1 -2 -2 -2 -3 -3 -3 -3 -3 -4 -5 -5 -5 -5 -5 -6 -5 -5 -6 -6 -6 -6 -6 -6 -6 -6 -6 -6 -6 -6
2 2 1 1 1 1 0 0 0 -0 -0 -1 -1 -2 -2 -2 -3 -3 -3 -3 -4 -4 -4 -5 -5 -5 -5 -5 -6 -6 -6 -6 -6 -6 -6 -6 -6 -6 -6 -6 -6 -6 -6 -7
1 1 1 1 1 0 -0 -0 -0 -1 -1 -1 -2 -2 -2 -3 -3 -3 -4 -4 -4 -5 -5 -5 -6 -6 -6 -6 -6 -6 -6 -6 -6 -6 -6 -7 -7 -6 -6 -6 -7 -7 -7 -7
1 1 0 0 -0 -0 -1 -1 -1 -2 -2 -2 -2 -3 -3 -3 -3 -4 -4 -5 -5 -5 -6 -6 -6 -6 -6 -6 -6 -6 -6 -6 -6 -7 -7 -7 -7 -7 -7 -7 -7 -7 -7 -8
0 -0 -0 -1 -1 -1 -1 -1 -2 -2 -2 -3 -3 -3 -4 -4 -4 -4 -5 -5 -5 -6 -6 -6 -6 -6 -6 -6 -6 -6 -6 -7 -7 -7 -7 -7 -7 -7 -7 -7 -7 -7 -8 -8
-1 -1 -1 -1 -1 -2 -2 -2 -2 -3 -3 -3 -3 -4 -4 -4 -5 -5 -6 -5 -6 -6 -6 -6 -6 -7 -7 -6 -6 -7 -7 -7 -7 -7 -7 -7 -7 -7 -7 -7 -8 -8 -8 -8
-1 -1 -2 -2 -2 -2 -2 -2 -3 -3 -3 -4 -4 -4 -4 -5 -5 -5 -6 -6 -6 -6 -6 -6 -7 -7 -7 -7 -7 -7 -7 -7 -7 -7 -7 -7 -7 -7 -7 -8 -8 -8 -8 -8
-2 -2 -2 -2 -3 -3 -3 -3 -3 -3 -4 -4 -4 -4 -5 -5 -5 -6 -6 -6 -6 -7 -7 -7 -7 -7 -7 -7 -8 -8 -8 -8 -8 -8 -7 -7 -7 -7 -8 -8 -8 -8 -8 -8
-2 -3 -3 -3 -3 -3 -4 -4 -4 -4 -5 -5 -5 -5 -5 -5 -6 -6 -6 -6 -7 -7 -7 -7 -7 -8 -8 -8 -8 -8 -8 -8 -8 -8 -7 -7 -7 -8 -8 -8 -8 -8 -8 -9
-3 -3 -3 -3 -3 -4 -4 -4 -5 -5 -5 -5 -5 -5 -5 -6 -6 -6 -7 -7 -7 -7 -8 -8 -8 -8 -8 -8 -8 -8 -8 -8 -8 -8 -7 -7 -8 -8 -8 -8 -8 -8 -9 -9

GEFSNGP_850_meantemp_102.txt.gz
Temperature
10 10 10 10 10 9 8 8 9 9 8 9 8 7 8 8 8 7 7 7 6 6 5 5 5 4 4 4 4 3 3 3 3 3 2 2 2 2 1 1 1 1 0 0
10 10 9 8 8 8 8 8 7 8 8 8 7 7 7 7 7 6 6 6 5 5 4 4 4 3 3 3 3 3 3 2 2 2 2 1 1 1 1 0 0 -0 -0 -1
8 8 9 8 9 8 8 7 7 7 7 6 6 6 7 7 6 5 5 5 4 4 3 3 3 3 3 2 2 2 2 2 1 1 1 0 -0 -0 -0 -0 -1 -1 -1 -1
7 8 9 10 9 8 8 7 6 7 6 6 6 7 7 6 5 5 4 4 3 3 3 3 3 2 2 2 2 1 1 1 0 -0 -0 -1 -1 -1 -1 -1 -2 -2 -2 -2
6 7 7 8 8 7 7 7 6 6 6 6 6 5 6 6 5 4 4 3 3 3 2 2 2 2 1 1 1 1 0 -0 -0 -1 -1 -1 -2 -2 -2 -2 -2 -3 -3 -3
5 6 7 9 9 8 8 7 6 6 5 5 4 3 4 5 4 4 3 3 3 2 2 2 2 1 1 1 0 -0 -1 -1 -1 -2 -2 -2 -2 -2 -3 -3 -3 -3 -3 -3
4 5 6 7 8 8 8 7 6 6 5 5 3 3 4 4 3 3 3 3 2 2 2 2 1 0 0 -0 -0 -1 -1 -2 -2 -2 -3 -3 -3 -3 -3 -4 -4 -4 -4 -4
4 5 6 7 7 6 6 6 6 6 5 5 4 4 3 3 3 3 2 2 2 1 1 1 1 -0 -1 -1 -1 -2 -2 -2 -2 -3 -3 -3 -4 -4 -4 -4 -4 -4 -4 -4
5 7 6 7 7 7 7 6 6 5 4 4 3 3 3 2 2 2 2 2 1 1 1 1 0 -1 -1 -1 -2 -2 -2 -3 -3 -3 -3 -4 -4 -4 -4 -5 -5 -5 -5 -5
4 4 5 6 6 6 6 5 5 4 4 3 3 2 2 2 2 1 1 1 1 0 -0 -0 -0 -1 -1 -2 -2 -3 -3 -3 -4 -4 -4 -4 -5 -5 -5 -5 -5 -6 -6 -6
4 4 4 5 5 5 5 4 4 3 3 2 2 2 1 1 1 1 1 1 0 -0 -1 -1 -1 -1 -2 -2 -3 -4 -4 -4 -4 -5 -5 -5 -5 -5 -5 -6 -6 -6 -6 -6
4 4 3 5 5 4 4 4 3 3 2 2 2 1 1 1 1 1 0 0 -0 -1 -1 -1 -2 -2 -2 -3 -4 -4 -5 -5 -5 -5 -5 -6 -6 -6 -5 -6 -6 -6 -6 -6
5 5 5 5 4 4 3 3 2 2 2 2 1 1 1 1 0 0 -0 -1 -1 -1 -2 -2 -2 -2 -3 -4 -4 -5 -5 -5 -6 -6 -6 -6 -6 -6 -6 -6 -6 -6 -6 -6
4 4 4 3 3 3 2 2 2 2 2 1 1 1 0 0 -0 -0 -1 -1 -2 -2 -2 -2 -3 -3 -3 -4 -5 -5 -5 -6 -6 -6 -6 -6 -6 -6 -7 -7 -6 -6 -6 -6
3 3 3 3 2 2 2 2 2 2 1 1 1 1 0 -0 -1 -1 -1 -2 -2 -2 -2 -3 -3 -3 -4 -5 -5 -6 -6 -6 -6 -6 -6 -6 -6 -7 -7 -7 -7 -7 -7 -6
2 2 2 2 2 2 2 1 1 1 1 0 0 -0 -0 -1 -1 -1 -2 -2 -3 -3 -3 -3 -4 -4 -4 -5 -6 -6 -6 -6 -6 -7 -7 -7 -7 -7 -7 -7 -7 -7 -7 -7
2 2 1 1 1 1 1 1 0 0 -0 -0 -0 -1 -1 -1 -2 -2 -2 -3 -3 -3 -3 -4 -4 -5 -5 -5 -6 -6 -6 -6 -7 -7 -7 -7 -7 -7 -7 -7 -7 -7 -7 -7
1 1 1 1 1 0 0 0 -0 -0 -1 -1 -1 -2 -2 -2 -3 -3 -3 -3 -3 -3 -3 -4 -5 -5 -5 -6 -6 -6 -7 -7 -7 -7 -7 -7 -7 -7 -7 -7 -7 -7 -7 -7
1 1 1 0 0 -0 -0 -0 -1 -1 -1 -1 -2 -2 -2 -3 -3 -3 -4 -4 -4 -4 -4 -4 -5 -6 -6 -6 -6 -7 -7 -7 -7 -7 -7 -8 -8 -8 -8 -8 -8 -8 -8 -8
0 0 0 0 -0 -0 -1 -1 -1 -1 -2 -2 -2 -3 -3 -3 -3 -4 -4 -4 -4 -5 -5 -5 -6 -6 -6 -6 -7 -7 -7 -7 -7 -8 -8 -8 -8 -8 -8 -8 -8 -8 -8 -8
-0 -0 -0 -1 -1 -1 -1 -1 -2 -2 -2 -2 -3 -3 -3 -4 -4 -4 -5 -5 -4 -5 -5 -6 -6 -6 -7 -7 -7 -7 -8 -8 -8 -8 -8 -8 -9 -8 -8 -8 -8 -8 -8 -8
-1 -1 -1 -1 -1 -1 -2 -2 -2 -2 -3 -3 -3 -4 -4 -4 -4 -5 -5 -5 -5 -6 -6 -6 -6 -7 -7 -7 -8 -8 -8 -8 -8 -9 -9 -9 -9 -9 -8 -8 -8 -8 -8 -8
-1 -1 -2 -2 -2 -2 -2 -2 -3 -3 -3 -3 -4 -4 -5 -5 -5 -5 -6 -5 -6 -6 -6 -6 -7 -7 -8 -8 -8 -8 -8 -9 -9 -9 -9 -9 -9 -9 -9 -8 -8 -8 -9 -9
-2 -2 -2 -2 -2 -3 -3 -3 -3 -3 -4 -4 -4 -5 -5 -5 -5 -5 -6 -6 -6 -6 -7 -7 -7 -8 -8 -8 -8 -9 -9 -9 -9 -9 -9 -9 -9 -9 -9 -9 -9 -9 -9 -9
-2 -2 -2 -3 -3 -3 -3 -4 -4 -4 -4 -4 -5 -5 -5 -6 -6 -6 -6 -6 -7 -7 -7 -7 -7 -8 -8 -9 -9 -9 -9 -9 -10 -10 -10 -9 -9 -9 -9 -9 -9 -9 -9 -9
-2 -3 -3 -3 -3 -4 -4 -4 -5 -5 -5 -6 -6 -6 -6 -6 -6 -7 -7 -7 -7 -7 -8 -8 -8 -8 -9 -9 -9 -9 -10 -10 -10 -10 -10 -10 -9 -9 -9 -9 -9 -9 -9 -9
-3 -3 -3 -4 -4 -4 -5 -5 -5 -6 -6 -6 -7 -6 -7 -7 -7 -7 -7 -7 -8 -8 -8 -8 -9 -9 -9 -10 -10 -10 -10 -10 -10 -10 -10 -10 -10 -9 -9 -9 -9 -9 -9 -9

GEFSNGP_850_meantemp_108.txt.gz
Temperature
15 14 14 15 15 13 14 16 16 17 16 16 15 13 11 10 8 8 7 6 6 6 6 5 5 4 4 4 3 3 3 2 2 1 1 1 1 0 0 -0 -1 -1 -1 -1
14 12 12 12 14 14 13 14 15 15 15 15 12 11 10 9 8 7 6 6 5 5 5 4 4 4 3 3 3 2 2 1 1 1 0 0 -0 -0 -1 -1 -1 -2 -2 -2
15 11 12 13 14 14 13 13 13 13 14 12 10 9 9 8 7 6 6 5 5 4 4 4 3 3 2 2 2 2 1 1 0 0 -0 -1 -1 -1 -2 -2 -2 -2 -2 -2
13 12 11 15 12 12 12 12 11 11 11 10 9 8 7 7 7 6 5 5 4 4 4 3 3 2 2 2 1 1 0 0 -0 -1 -1 -1 -2 -2 -2 -2 -3 -3 -3 -3
12 13 14 14 11 11 11 11 11 10 10 8 7 7 7 6 5 5 5 4 4 3 3 3 2 2 1 1 1 0 -0 -1 -1 -1 -2 -2 -3 -3 -3 -3 -3 -3 -4 -4
11 11 12 14 10 9 11 12 10 9 9 7 7 9 9 6 5 4 4 4 3 3 2 2 2 1 1 0 -0 -0 -1 -1 -1 -2 -2 -3 -3 -3 -3 -4 -4 -4 -4 -4
11 11 13 12 9 9 11 13 9 8 7 7 7 8 6 5 4 4 3 3 3 2 2 2 1 0 0 -0 -1 -1 -1 -2 -2 -3 -3 -3 -4 -4 -4 -4 -5 -5 -5 -5
11 10 11 9 8 10 11 8 7 7 6 6 5 5 5 4 4 3 3 3 2 2 1 1 1 -0 -0 -1 -1 -2 -2 -2 -3 -3 -4 -4 -4 -5 -5 -5 -5 -5 -5 -5
11 12 9 7 8 7 7 7 6 6 5 5 5 4 4 3 3 3 2 2 1 1 1 1 0 -1 -1 -1 -2 -2 -3 -3 -4 -4 -4 -5 -5 -5 -5 -5 -6 -6 -6 -6
8 9 7 6 6 6 6 6 6 6 5 5 4 3 3 3 2 2 2 1 1 0 -0 -0 -1 -1 -2 -2 -3 -3 -4 -4 -4 -4 -5 -5 -5 -6 -6 -6 -6 -6 -6 -6
8 8 6 5 5 5 6 5 5 5 4 4 3 3 2 2 2 1 1 1 0 -0 -1 -1 -1 -2 -2 -3 -3 -4 -4 -4 -5 -5 -5 -6 -6 -6 -6 -6 -6 -6 -6 -6
10 8 7 7 5 5 5 5 4 4 3 3 2 2 2 1 1 1 0 0 -0 -1 -1 -2 -2 -2 -2 -3 -4 -4 -5 -5 -5 -6 -6 -6 -6 -6 -6 -6 -6 -6 -7 -7
6 5 5 5 5 5 4 4 3 3 3 2 2 1 1 1 1 0 -0 -1 -1 -1 -2 -2 -2 -3 -3 -4 -4 -5 -5 -6 -6 -6 -6 -7 -7 -7 -7 -6 -6 -7 -7 -7
5 5 4 4 4 4 3 3 3 2 2 2 1 1 1 0 -0 -0 -1 -1 -2 -2 -2 -3 -3 -3 -4 -4 -5 -5 -6 -6 -6 -7 -7 -7 -7 -7 -7 -7 -7 -7 -7 -7
3 4 4 3 3 3 2 2 2 2 1 1 1 0 -0 -1 -1 -1 -1 -2 -2 -2 -3 -3 -4 -4 -4 -5 -5 -6 -6 -6 -7 -7 -7 -7 -7 -7 -7 -7 -8 -8 -7 -7
3 3 3 2 2 2 2 2 1 1 1 0 0 -0 -1 -1 -1 -2 -2 -2 -3 -3 -3 -4 -4 -4 -5 -5 -6 -6 -6 -6 -7 -7 -7 -7 -8 -8 -8 -8 -8 -8 -8 -8
2 1 1 1 1 1 1 1 1 0 -0 -0 -1 -1 -1 -2 -2 -2 -2 -3 -3 -3 -4 -4 -4 -5 -5 -5 -6 -7 -7 -7 -7 -7 -8 -8 -8 -8 -8 -8 -8 -8 -8 -8
2 2 2 1 1 1 1 0 0 -0 -0 -1 -1 -2 -2 -2 -3 -3 -3 -3 -4 -4 -4 -4 -5 -5 -5 -6 -6 -7 -7 -7 -8 -8 -8 -8 -8 -8 -8 -9 -9 -9 -9 -9
1 1 1 1 0 0 0 -0 -0 -1 -1 -1 -2 -2 -3 -3 -3 -3 -4 -4 -4 -4 -4 -5 -5 -6 -6 -6 -7 -7 -7 -8 -8 -8 -8 -8 -9 -9 -9 -9 -9 -9 -9 -9
0 0 0 0 -0 -0 -0 -1 -1 -1 -2 -2 -3 -3 -3 -3 -4 -4 -4 -5 -4 -5 -5 -5 -6 -6 -6 -7 -7 -8 -8 -8 -8 -8 -9 -9 -9 -9 -9 -9 -9 -9 -9 -9
-0 -0 -0 -0 -0 -1 -1 -1 -2 -2 -2 -3 -3 -3 -3 -4 -4 -5 -5 -5 -5 -5 -6 -6 -6 -7 -7 -8 -8 -8 -8 -8 -9 -9 -9 -9 -10 -10 -10 -10 -10 -10 -10 -10
-1 -1 -1 -1 -1 -1 -1 -2 -2 -2 -3 -3 -3 -4 -4 -4 -5 -5 -5 -6 -6 -6 -7 -7 -7 -7 -8 -8 -8 -8 -8 -9 -9 -9 -10 -10 -10 -10 -10 -10 -10 -10 -10 -10
-1 -1 -1 -2 -2 -2 -2 -2 -3 -3 -3 -4 -4 -4 -5 -5 -5 -6 -6 -6 -7 -7 -7 -7 -7 -8 -8 -8 -8 -9 -9 -9 -10 -10 -10 -10 -10 -11 -11 -11 -11 -11 -10 -10
-1 -2 -2 -2 -2 -3 -3 -3 -3 -4 -4 -4 -4 -5 -5 -6 -6 -6 -7 -7 -7 -7 -8 -8 -8 -8 -8 -9 -9 -9 -10 -10 -10 -10 -11 -11 -11 -11 -11 -11 -11 -11 -11 -10
-2 -2 -2 -3 -3 -3 -3 -4 -4 -4 -5 -5 -5 -5 -6 -6 -7 -7 -7 -7 -8 -8 -8 -8 -8 -9 -9 -9 -10 -10 -10 -10 -11 -11 -11 -11 -11 -11 -11 -11 -11 -11 -11 -10
-3 -3 -3 -3 -4 -4 -4 -5 -5 -5 -6 -6 -6 -6 -7 -7 -7 -8 -8 -8 -8 -9 -9 -9 -9 -9 -10 -10 -10 -10 -10 -11 -11 -11 -11 -11 -11 -11 -11 -11 -11 -11 -11 -10
-3 -3 -4 -4 -4 -5 -5 -6 -6 -6 -7 -7 -7 -7 -8 -8 -8 -9 -9 -9 -9 -9 -10 -10 -10 -10 -10 -10 -11 -11 -11 -11 -11 -11 -11 -12 -12 -12 -12 -11 -11 -11 -11 -10

GEFSNGP_850_meantemp_114.txt.gz
Temperature
17 17 17 16 16 15 14 14 14 15 16 16 15 14 14 13 13 12 11 10 9 8 8 7 7 6 5 5 5 4 4 4 3 3 2 2 2 1 1 0 -0 -1 -1 -1
15 16 16 15 15 15 15 15 15 15 15 15 15 15 14 13 12 11 10 9 8 8 7 6 6 5 5 5 4 4 3 3 3 2 2 1 1 1 0 -0 -1 -1 -1 -2
13 15 14 13 14 14 14 15 15 14 14 13 13 13 13 12 11 11 9 8 8 7 6 6 5 5 4 4 4 3 3 2 2 1 1 1 0 -0 -1 -1 -1 -2 -2 -2
12 13 11 14 15 15 15 15 15 14 13 13 12 12 12 11 11 10 9 8 7 6 6 5 5 4 4 3 3 2 2 2 1 1 0 -0 -0 -1 -1 -2 -2 -2 -3 -3
11 11 12 14 13 13 13 13 14 13 12 12 11 10 10 10 9 9 8 7 6 6 5 4 4 4 3 3 2 2 1 1 1 0 -0 -1 -1 -2 -2 -2 -3 -3 -3 -4
10 10 10 14 12 13 13 11 13 13 11 10 9 7 8 9 8 8 7 6 5 5 4 4 3 3 2 2 2 1 1 0 0 -0 -1 -1 -2 -2 -2 -3 -3 -3 -4 -4
9 9 11 12 11 11 11 11 11 12 11 10 8 7 8 8 7 6 6 5 5 4 4 3 3 2 2 1 1 1 0 -0 -1 -1 -2 -2 -2 -3 -3 -3 -4 -4 -4 -5
9 9 10 10 10 10 10 10 11 10 10 9 8 7 7 6 6 5 5 4 4 3 3 3 2 2 1 1 0 -0 -0 -1 -1 -2 -2 -3 -3 -3 -4 -4 -4 -5 -5 -5
11 11 11 11 11 10 10 10 9 9 9 8 7 6 6 5 5 4 4 3 3 3 2 2 2 1 0 0 -0 -1 -1 -1 -2 -2 -3 -3 -4 -4 -4 -5 -5 -5 -5 -6
11 11 11 11 10 10 9 9 8 8 8 7 6 6 5 4 4 4 3 3 2 2 2 1 1 0 0 -0 -1 -1 -2 -2 -3 -3 -3 -4 -4 -5 -5 -5 -5 -6 -6 -6
10 10 10 10 9 9 8 8 7 7 6 6 5 5 4 4 3 3 2 2 2 1 1 1 0 -0 -0 -1 -2 -2 -2 -3 -3 -4 -4 -5 -5 -5 -5 -6 -6 -6 -6 -6
9 10 9 9 9 8 7 7 6 6 5 5 5 4 3 3 3 2 2 1 1 1 0 0 -0 -1 -1 -2 -2 -3 -3 -3 -4 -4 -5 -5 -6 -6 -6 -6 -6 -6 -6 -6
10 9 9 8 8 7 6 6 5 5 5 4 3 3 3 2 2 2 1 1 1 0 -0 -1 -1 -1 -2 -2 -3 -3 -4 -4 -5 -5 -5 -6 -6 -7 -7 -6 -6 -7 -7 -7
8 8 7 6 6 6 5 5 4 4 3 3 3 2 2 2 1 1 1 0 -0 -1 -1 -1 -2 -2 -2 -3 -3 -4 -4 -5 -5 -6 -6 -6 -7 -7 -7 -7 -7 -7 -7 -7
6 6 6 5 5 4 4 4 3 3 2 2 2 2 1 1 1 0 0 -0 -1 -1 -1 -2 -2 -2 -3 -4 -4 -4 -5 -5 -6 -6 -6 -7 -7 -7 -8 -8 -8 -8 -8 -7
5 4 4 4 3 3 3 2 2 2 2 1 1 1 1 0 0 -0 -0 -1 -2 -2 -2 -2 -3 -3 -4 -4 -5 -5 -5 -6 -6 -7 -7 -7 -7 -8 -8 -8 -8 -8 -8 -8
4 3 3 3 3 2 2 2 2 1 1 1 1 0 0 -0 -1 -1 -1 -2 -2 -2 -2 -3 -3 -4 -4 -5 -5 -6 -6 -7 -7 -7 -8 -8 -8 -8 -8 -8 -8 -8 -9 -9
3 3 3 3 2 2 1 1 1 1 1 0 0 -0 -1 -1 -1 -2 -2 -2 -3 -3 -3 -3 -4 -4 -5 -5 -6 -6 -7 -7 -8 -8 -8 -8 -8 -8 -8 -8 -9 -9 -9 -9
2 2 2 2 2 1 1 1 1 0 0 -0 -1 -1 -1 -2 -2 -2 -3 -3 -3 -4 -3 -4 -5 -5 -5 -6 -6 -7 -7 -8 -8 -8 -8 -8 -8 -9 -9 -9 -9 -9 -9 -10
1 1 1 1 1 1 0 0 -0 -0 -1 -1 -1 -2 -2 -2 -3 -3 -3 -4 -4 -4 -4 -5 -5 -6 -6 -6 -7 -7 -8 -8 -8 -8 -9 -9 -9 -9 -9 -9 -10 -10 -10 -10
1 1 1 0 0 0 -0 -1 -1 -1 -1 -2 -2 -2 -3 -3 -3 -4 -4 -4 -4 -5 -5 -6 -6 -6 -7 -7 -8 -8 -8 -8 -9 -9 -9 -9 -9 -9 -10 -10 -10 -10 -10 -11
0 0 -0 -0 -1 -1 -1 -1 -1 -2 -2 -2 -3 -3 -3 -4 -4 -4 -5 -5 -5 -6 -6 -6 -7 -7 -8 -8 -8 -8 -8 -9 -9 -9 -9 -10 -10 -10 -10 -10 -11 -11 -11 -11
-0 -1 -1 -1 -1 -1 -1 -1 -2 -2 -3 -3 -3 -4 -4 -4 -5 -5 -6 -5 -6 -6 -7 -7 -8 -8 -8 -8 -8 -9 -9 -9 -10 -10 -10 -10 -10 -10 -11 -11 -11 -11 -11 -11
-1 -1 -1 -1 -2 -2 -2 -2 -3 -3 -3 -4 -4 -4 -5 -5 -5 -6 -6 -6 -7 -7 -8 -8 -8 -9 -9 -9 -9 -10 -10 -10 -10 -10 -11 -11 -11 -11 -11 -11 -11 -11 -12 -12
-1 -2 -2 -2 -2 -3 -3 -3 -4 -4 -4 -5 -5 -5 -6 -6 -6 -7 -7 -7 -8 -8 -8 -9 -9 -9 -9 -10 -10 -10 -10 -11 -11 -11 -11 -11 -11 -11 -11 -12 -12 -12 -12 -12
-2 -2 -3 -3 -3 -4 -4 -4 -5 -5 -5 -6 -6 -6 -6 -7 -7 -8 -8 -8 -8 -9 -9 -9 -10 -10 -10 -10 -11 -11 -11 -11 -11 -11 -11 -12 -12 -12 -12 -12 -12 -12 -12 -12
-3 -3 -3 -4 -4 -5 -5 -5 -6 -6 -6 -7 -7 -7 -8 -8 -8 -9 -9 -9 -9 -10 -10 -10 -10 -11 -11 -11 -11 -11 -11 -11 -11 -12 -12 -12 -12 -12 -12 -12 -12 -12 -12 -12